Showing default

YAOGAN-32 A, 43642

Orbit data source: Space-Track

YAOGAN-32 A, 43642 is a payload satellite owned by PLA SSF (CN) in SSO that was launched on Tue, 09 Oct 2018 UTC via a CHANG ZHENG 2C/YZ-1S launch vehicle from the Jiuquan Satellite Launch Center, China (JSC). Payloads include a variety of satellites, spacecraft, and rockets equipped with specific instruments for various scientific and technological missions. These include communications satellites like Starlink; space stations such as the ISS; scientific satellites like the Hubble; Earth observation satellites from companies like Planet Labs, Umbra, and HawkEye 360; GPS; miniature CubeSats for education and research; and military/defense satellites.

Loading next visibility...
YAOGAN-32 A details
Identifier
43642, 2018-077A
Orbit
SSO
Last TLE update8 hours ago
Origin
Flag of CNPLA SSF (CN / PRC)
ManufacturerSECM?
MissionOperational Defense Sigint
Bus & MotorUnknown
Mass~500 kg wet, ~500 kg dry
Launch date (UTC)
2018-10-09 (6 years ago)
Launch vehicle
CHANG ZHENG 2C/YZ-1S
Launch site
Jiuquan Satellite Launch Center, China (JSC)
Object type
Payload
Rocket body
Debris
Shape & HBRBox + 2 Pan, 1 m
Radar Cross Section0.446 m², Large (>1 m²)

Expand to show TLE details & history

TLE from 8 hours ago
0 YAOGAN-32 A
1 43642U 18077A   24339.81892507  .00001988  00000-0  40592-3 0  9992
2 43642  97.9661  14.7520 0001612  97.8049 262.3336 14.61936718328076
Epoch: 2024-12-04T19:39Z
Definitive object data (Epoch: 2024-12-04T19:39:15.126Z)
Latitude0.00001°
Longitude5.83036°
Altitude690.074 km
Speed7.511 km/s
True Right ascension00h 59m 00s
True Declination0° 00' 00"
Sunlit
Object was in full shadow at TLE epoch
Visualization TLE readout
Latitude-10.93556°
Longitude7.69918°
Altitude692.326 km
Speed7.509 km/s
Apparent Right ascension23h 39m 14s
Apparent Declination-67° 06' 47"
Sunlit
Object is in full shadow
Visualization observer readout
Local Sidereal Time01:46:20
Azimuth192.567° SSW
Elevation-19.729°
Doppler factor1
Orbital elements
Apogee altitude685.134 km
Perigee altitude682.857 km
Semi-major axis7,062.132 km
Eccentricity0.0001612
Inclination97.9661°
RAAN14.752°
Arg. of periapsis97.8049°
True anomaly262.31529°
Mean anomaly262.3336°
Eccentric anomaly262.32445°
Mean motion3.65712 °/min
BSTAR0.00040592
Orbital period98.44 mins
Loading maneuver chart data...
Loading historical data...
Loading historical data...
Loading historical data...
Loading historical data...
Loading historical data...
Loading historical data...
Loading historical data...
Other satellites on launch #77 in the year 2018 (2018-10-09 UTC)

YAOGAN-32 A Visibility forecast

Observer location: undefined°, undefined

Span
Click to sort rows by Start time (UTC) header in descending order
Start Az.
Max El. time (UTC)
Max El. Az.
Max El.
End time (UTC)
End Az.
5 mins2024-12-05 14:20:02.291Z62.083° ENE2024-12-05 14:22:02.291Z92.09° ESE16.99°2024-12-05 14:25:02.291Z133.702° SE
7 mins2024-12-05 15:57:02.291Z348.482° N2024-12-05 16:00:02.291Z275.826° WNW34.163°2024-12-05 16:04:02.291Z217.498° SW
4 mins2024-12-06 01:24:02.291Z88.287° E2024-12-06 01:25:02.291Z73.141° E16.658°2024-12-06 01:28:02.291Z29.264° NE
7 mins2024-12-06 03:00:02.291Z198.23° SSW2024-12-06 03:03:02.291Z278.362° WNW35.417°2024-12-06 03:07:02.291Z334.896° NNW
|